JBU2545 KJFK-KBOS

Flight info

Callsign JBU2545
Flight time N/A
Altitude 21000
Route MERIT ROBUC3
Aircraft A20N/M-SDE2E3FGHIRWXY/LB1

Departure

Time 2026-05-09 16:45
Airport John F. Kennedy International Airport (KJFK)

Arrival

Time N/A
Airport Boston Logan International Airport (KBOS)
Time Latitude Longitude Altitude Speed Heading
2026-05-09 16:24 40.64699 -73.77567 22 ft 0 kts 229°
2026-05-09 16:36 40.64729 -73.77524 21 ft 2 kts 192°
2026-05-09 16:37 40.64745 -73.77528 21 ft 2 kts 138°
2026-05-09 16:37 40.64753 -73.77539 20 ft 1 kts 123°
2026-05-09 16:37 40.64754 -73.77541 20 ft 0 kts 122°
2026-05-09 16:42 40.64757 -73.77251 20 ft 10 kts 111°
2026-05-09 16:42 40.64778 -73.77157 22 ft 12 kts 53°
2026-05-09 16:42 40.64834 -73.77057 21 ft 15 kts 54°
2026-05-09 16:42 40.64897 -73.76939 22 ft 17 kts 54°
2026-05-09 16:43 40.64960 -73.76826 22 ft 9 kts 54°
2026-05-09 16:43 40.64992 -73.76757 23 ft 8 kts 74°
2026-05-09 16:43 40.64968 -73.76689 24 ft 10 kts 120°
2026-05-09 16:43 40.64986 -73.76610 22 ft 11 kts 30°
2026-05-09 16:44 40.65064 -73.76552 21 ft 14 kts 31°
2026-05-09 16:44 40.65091 -73.76452 23 ft 14 kts 120°
2026-05-09 16:44 40.65030 -73.76361 26 ft 14 kts 175°
2026-05-09 16:44 40.64939 -73.76422 22 ft 18 kts 211°
2026-05-09 16:45 40.64633 -73.76659 19 ft 85 kts 211°
2026-05-09 16:45 40.63954 -73.77194 21 ft 139 kts 210°
2026-05-09 16:45 40.63055 -73.77915 315 ft 153 kts 208°
2026-05-09 16:45 40.62158 -73.78656 916 ft 154 kts 211°
2026-05-09 16:46 40.61194 -73.79362 1429 ft 167 kts 210°
2026-05-09 16:46 40.60113 -73.80112 1934 ft 185 kts 210°
2026-05-09 16:46 40.58876 -73.80881 2466 ft 210 kts 197°
2026-05-09 16:46 40.57342 -73.80823 3137 ft 237 kts 164°
2026-05-09 16:47 40.55886 -73.79584 3772 ft 266 kts 134°
2026-05-09 16:47 40.54984 -73.77378 4524 ft 284 kts 104°
2026-05-09 16:47 40.54954 -73.74758 5453 ft 292 kts 75°
2026-05-09 16:47 40.55815 -73.72328 6328 ft 297 kts 47°
2026-05-09 16:48 40.57283 -73.70425 7235 ft 299 kts 37°
2026-05-09 16:48 40.58808 -73.68586 8193 ft 304 kts 37°
2026-05-09 16:48 40.60375 -73.66680 9122 ft 310 kts 37°
2026-05-09 16:48 40.61960 -73.64729 10104 ft 313 kts 37°
2026-05-09 16:49 40.63531 -73.62747 10741 ft 330 kts 37°
2026-05-09 16:49 40.65253 -73.60552 11125 ft 352 kts 37°
2026-05-09 16:49 40.67205 -73.58609 11753 ft 349 kts 18°
2026-05-09 16:50 40.71584 -73.55878 13717 ft 349 kts 16°
2026-05-09 16:50 40.73790 -73.54502 14486 ft 353 kts 16°
2026-05-09 16:50 40.76028 -73.53107 15207 ft 358 kts 16°
2026-05-09 16:50 40.78294 -73.51690 15954 ft 362 kts 17°
2026-05-09 16:51 40.80586 -73.50253 16697 ft 368 kts 17°
2026-05-09 16:51 40.82895 -73.48804 17424 ft 372 kts 17°
2026-05-09 16:51 40.85287 -73.47312 17719 ft 386 kts 19°
2026-05-09 16:51 40.87780 -73.45752 17888 ft 406 kts 19°
2026-05-09 16:52 40.90361 -73.44130 18461 ft 413 kts 19°
2026-05-09 16:52 40.92963 -73.42485 19099 ft 417 kts 20°
2026-05-09 16:52 40.95599 -73.40818 19698 ft 421 kts 20°
2026-05-09 16:52 40.98254 -73.39140 20305 ft 425 kts 19°
2026-05-09 16:53 41.00033 -73.38017 20555 ft 430 kts 20°